Location: Newark
(23.5328°S, 46.7919°W)
Time: 13:52:52
(UTC+00:00)

ISS - Pass Details

Date: 07 March 2021
Orbit: 418 x 422 km, 51.6° (Epoch: 11 April)

Event Time Altitude Azimuth Distance (km) Brightness Sun altitude
Rises 21:49:53 0° 200° (SSW) 2,394 0.5 -5.3°
Reaches altitude 10° 21:52:41 10° 175° (S) 1,522 -0.9 -5.9°
Maximum altitude 21:54:46 15° 138° (SE) 1,240 -1.7 -6.4°
Drops below altitude 10° 21:56:50 10° 100° (E) 1,511 -1.5 -6.9°
Enters shadow 21:57:18 - 94° (E) 1,629 -1.4 -7.0°
